,,,PA_Meas_PMT16A,,PR_Meas_QMR101_102,,RH_Meas_QMH101,,SR_Meas_QMS101,,TA_Meas_QMH101,,GenWind,,GenWind,
date,time,status,PA,status,PR,status,RH,status,SR,status,TA,status,DirAvg,status,SpdAvg,
2011-01-17, 00:00:04,VALID,1001.93,VALID,0,INVALID,163.632,VALID,0,VALID,25.045,VALID,104,VALID,1.42031,
2011-01-17, 00:01:04,VALID,1001.95,VALID,0,INVALID,163.632,VALID,0,VALID,25.1423,VALID,105,VALID,1.01133,
2011-01-17, 00:02:04,VALID,1001.96,VALID,0,INVALID,163.639,VALID,0,VALID,25.2397,VALID,128,VALID,0.446094,
2011-01-17, 00:03:04,VALID,1001.97,VALID,0,INVALID,163.624,VALID,0,VALID,25.2397,VALID,95,VALID,0.599609,
2011-01-17, 00:04:04,VALID,1001.94,VALID,0,INVALID,163.601,VALID,0,VALID,25.2397,VALID,105,VALID,0.298047,
2011-01-17, 00:05:04,VALID,1001.94,VALID,0,INVALID,163.609,VALID,0,VALID,25.2786,VALID,116,VALID,0.667188,
2011-01-17, 00:06:04,VALID,1001.92,VALID,0,INVALID,163.624,VALID,0,VALID,25.2786,VALID,50,VALID,0.616406,
2011-01-17, 00:07:04,VALID,1001.92,VALID,0,INVALID,163.601,VALID,0,VALID,25.3974,VALID,91,VALID,0.980469,
2011-01-17, 00:08:04,VALID,1001.88,VALID,0,INVALID,163.609,VALID,0,VALID,25.4344,VALID,81,VALID,0.185937,
2011-01-17, 00:09:04,VALID,1001.86,VALID,0,INVALID,163.556,VALID,0,VALID,25.4539,VALID,81,VALID,0.179297,
2011-01-17, 00:10:04,VALID,1001.86,VALID,0,INVALID,163.578,VALID,0,VALID,25.4753,VALID,81,VALID,0.046875,
2011-01-17, 00:11:04,VALID,1001.84,VALID,0,INVALID,163.586,VALID,0,VALID,25.4149,VALID,81,VALID,0.107031,
2011-01-17, 00:12:04,VALID,1001.86,VALID,0,INVALID,163.578,VALID,0,VALID,25.4169,VALID,81,VALID,0.466016,
2011-01-17, 00:13:04,VALID,1001.85,VALID,0,INVALID,163.563,VALID,0,VALID,25.3955,VALID,30,VALID,0.780078,
2011-01-17, 00:14:04,VALID,1001.82,VALID,0,INVALID,163.624,VALID,0,VALID,25.3195,VALID,30,VALID,0.697656,
2011-01-17, 00:15:04,VALID,1001.82,VALID,0,INVALID,163.601,VALID,0,VALID,25.2221,VALID,29,VALID,0.414844,
2011-01-17, 00:16:04,VALID,1001.83,VALID,0,INVALID,163.609,VALID,0,VALID,25.1423,VALID,26,VALID,0.529688,
2011-01-17, 00:17:04,VALID,1001.87,VALID,0,INVALID,163.571,VALID,0,VALID,25.0644,VALID,353,VALID,0.471484,
2011-01-17, 00:18:04,VALID,1001.85,VALID,0,INVALID,163.639,VALID,0,VALID,24.9671,VALID,353,VALID,0.275,
2011-01-17, 00:19:04,VALID,1001.87,VALID,0,INVALID,163.624,VALID,0,VALID,24.8892,VALID,353,VALID,0.554688,
2011-01-17, 00:20:04,VALID,1001.89,VALID,0,INVALID,163.647,VALID,0,VALID,24.8503,VALID,353,VALID,0.426562,
2011-01-17, 00:21:04,VALID,1001.91,VALID,0,INVALID,163.639,VALID,0,VALID,24.8132,VALID,351,VALID,0.894922,
2011-01-17, 00:22:04,VALID,1001.91,VALID,0,INVALID,163.647,VALID,0,VALID,24.7548,VALID,350,VALID,0.906641,
2011-01-17, 00:23:04,VALID,1001.93,VALID,0,INVALID,163.662,VALID,0,VALID,24.6769,VALID,350,VALID,0.825781,
2011-01-17, 00:24:04,VALID,1001.91,VALID,0,INVALID,163.685,VALID,0,VALID,24.6166,VALID,352,VALID,0.75625,
2011-01-17, 00:25:04,VALID,1001.95,VALID,0,INVALID,163.678,VALID,0,VALID,24.5972,VALID,351,VALID,0.742188,
2011-01-17, 00:26:04,VALID,1001.97,VALID,0,INVALID,163.685,VALID,0,VALID,24.5777,VALID,351,VALID,0.866016,
2011-01-17, 00:27:04,VALID,1001.97,VALID,0,INVALID,163.662,VALID,0,VALID,24.5388,VALID,352,VALID,0.967188,
2011-01-17, 00:28:04,VALID,1001.99,VALID,0,INVALID,163.678,VALID,0,VALID,24.5406,VALID,353,VALID,0.951563,
2011-01-17, 00:29:04,VALID,1002.03,VALID,0,INVALID,163.678,VALID,0,VALID,24.4998,VALID,353,VALID,0.904297,
2011-01-17, 00:30:04,VALID,1002.02,VALID,0,INVALID,163.655,VALID,0,VALID,24.4998,VALID,2,VALID,0.655859,
2011-01-17, 00:31:04,VALID,1002.01,VALID,0,INVALID,163.685,VALID,0,VALID,24.4804,VALID,352,VALID,0.740234,
2011-01-17, 00:32:04,VALID,1002.03,VALID,0,INVALID,163.67,VALID,0,VALID,24.4804,VALID,355,VALID,1.21992,
2011-01-17, 00:33:04,VALID,1002.03,VALID,0,INVALID,163.67,VALID,0,VALID,24.4609,VALID,344,VALID,0.800781,
2011-01-17, 00:34:04,VALID,1002.05,VALID,0,INVALID,163.655,VALID,0,VALID,24.4822,VALID,357,VALID,1.3543,
2011-01-17, 00:35:04,VALID,1002.03,VALID,0,INVALID,163.647,VALID,0,VALID,24.498,VALID,8,VALID,0.892578,
2011-01-17, 00:36:04,VALID,1002.03,VALID,0,INVALID,163.647,VALID,0,VALID,24.5193,VALID,354,VALID,1.94219,
2011-01-17, 00:37:04,VALID,1002.03,VALID,0,INVALID,163.662,VALID,0,VALID,24.5582,VALID,351,VALID,1.39258,
2011-01-17, 00:38:04,VALID,1002.07,VALID,0,INVALID,163.678,VALID,0,VALID,24.599,VALID,352,VALID,1.07031,
2011-01-17, 00:39:04,VALID,1002.07,VALID,0,INVALID,163.639,VALID,0,VALID,24.5972,VALID,357,VALID,1.07891,
2011-01-17, 00:40:04,VALID,1002.09,VALID,0,INVALID,163.655,VALID,0,VALID,24.5777,VALID,352,VALID,1.35742,
2011-01-17, 00:41:04,VALID,1002.08,VALID,0,INVALID,163.647,VALID,0,VALID,24.5388,VALID,15,VALID,1.78789,
2011-01-17, 00:42:04,VALID,1002.09,VALID,0,INVALID,163.655,VALID,0,VALID,24.5193,VALID,357,VALID,1.36445,
2011-01-17, 00:43:04,VALID,1002.11,VALID,0,INVALID,163.655,VALID,0,VALID,24.4804,VALID,356,VALID,2.59219,
2011-01-17, 00:44:04,VALID,1002.12,VALID,0,INVALID,163.662,VALID,0,VALID,24.4609,VALID,24,VALID,1.18906,
2011-01-17, 00:45:04,VALID,1002.12,VALID,0,INVALID,163.662,VALID,0,VALID,24.4414,VALID,359,VALID,1.1707,
2011-01-17, 00:46:04,VALID,1002.11,VALID,0,INVALID,163.655,VALID,0,VALID,24.4025,VALID,356,VALID,0.822656,
2011-01-17, 00:47:04,VALID,1002.08,VALID,0,INVALID,163.678,VALID,0,VALID,24.383,VALID,353,VALID,1.49922,
2011-01-17, 00:48:04,VALID,1002.1,VALID,0,INVALID,163.685,VALID,0,VALID,24.4043,VALID,353,VALID,1.17461,
2011-01-17, 00:49:04,VALID,1002.08,VALID,0,INVALID,163.655,VALID,0,VALID,24.3849,VALID,3,VALID,0.968359,
2011-01-17, 00:50:04,VALID,1002.06,VALID,0,INVALID,163.67,VALID,0,VALID,24.3636,VALID,331,VALID,0.94375,
2011-01-17, 00:51:04,VALID,1002.03,VALID,0,INVALID,163.662,VALID,0,VALID,24.3636,VALID,336,VALID,0.504297,
2011-01-17, 00:52:04,VALID,1002.05,VALID,0,INVALID,163.678,VALID,0,VALID,24.3441,VALID,354,VALID,0.474219,
2011-01-17, 00:53:04,VALID,1002.04,VALID,0,INVALID,163.67,VALID,0,VALID,24.3636,VALID,354,VALID,0.05,
2011-01-17, 00:54:04,VALID,1002,VALID,0,INVALID,163.67,VALID,0,VALID,24.3636,VALID,354,VALID,0.0195313,
2011-01-17, 00:55:04,VALID,1002.01,VALID,0,INVALID,163.67,VALID,0,VALID,24.3654,VALID,300,VALID,0.00195313,
2011-01-17, 00:56:04,VALID,1002.01,VALID,0,INVALID,163.708,VALID,0,VALID,24.3636,VALID,300,VALID,0.31875,
2011-01-17, 00:57:04,VALID,1001.99,VALID,0,INVALID,163.685,VALID,0,VALID,24.3849,VALID,305,VALID,0.433203,
2011-01-17, 00:58:04,VALID,1002.02,VALID,0,INVALID,163.67,VALID,0,VALID,24.3441,VALID,345,VALID,0.609375,
2011-01-17, 00:59:04,VALID,1002,VALID,0,INVALID,163.662,VALID,0,VALID,24.3459,VALID,346,VALID,0.55,
2011-01-17, 01:00:04,VALID,1002,VALID,0,INVALID,163.701,VALID,0,VALID,24.3033,VALID,352,VALID,0.773828,
2011-01-17, 01:01:04,VALID,1002.01,VALID,0,INVALID,163.685,VALID,0,VALID,24.3265,VALID,354,VALID,0.507031,
2011-01-17, 01:02:04,VALID,1002.03,VALID,0,INVALID,163.662,VALID,0,VALID,24.3052,VALID,354,VALID,0.472266,
2011-01-17, 01:03:04,VALID,1002.03,VALID,0,INVALID,163.685,VALID,0,VALID,24.2662,VALID,354,VALID,0.526953,
2011-01-17, 01:04:04,VALID,1002.03,VALID,0,INVALID,163.693,VALID,0,VALID,24.2894,VALID,354,VALID,0.340234,
2011-01-17, 01:05:04,VALID,1002.07,VALID,0,INVALID,163.701,VALID,0,VALID,24.2681,VALID,354,VALID,0.298047,
2011-01-17, 01:06:04,VALID,1002.06,VALID,0,INVALID,163.708,VALID,0,VALID,24.2486,VALID,354,VALID,0.380469,
2011-01-17, 01:07:04,VALID,1002.05,VALID,0,INVALID,163.678,VALID,0,VALID,24.2097,VALID,354,VALID,0.323047,
2011-01-17, 01:08:04,VALID,1002.08,VALID,0,INVALID,163.67,VALID,0,VALID,24.1884,VALID,354,VALID,0.567969,
2011-01-17, 01:09:04,VALID,1002.05,VALID,0,INVALID,163.723,VALID,0,VALID,24.1689,VALID,354,VALID,0.476953,
2011-01-17, 01:10:04,VALID,1002.1,VALID,0,INVALID,163.678,VALID,0,VALID,24.1902,VALID,354,VALID,0.209375,
2011-01-17, 01:11:04,VALID,1002.1,VALID,0,INVALID,163.678,VALID,0,VALID,24.1689,VALID,354,VALID,0.209766,
2011-01-17, 01:12:04,VALID,1002.11,VALID,0,INVALID,163.693,VALID,0,VALID,24.1884,VALID,354,VALID,0.316016,
2011-01-17, 01:13:04,VALID,1002.15,VALID,0,INVALID,163.701,VALID,0,VALID,24.2097,VALID,354,VALID,0.283594,
2011-01-17, 01:14:04,VALID,1002.12,VALID,0,INVALID,163.678,VALID,0,VALID,24.2097,VALID,354,VALID,0.367188,
2011-01-17, 01:15:04,VALID,1002.15,VALID,0,INVALID,163.685,VALID,0,VALID,24.2078,VALID,1,VALID,0.500781,
2011-01-17, 01:16:04,VALID,1002.1,VALID,0,INVALID,163.708,VALID,0,VALID,24.1884,VALID,353,VALID,0.523438,
2011-01-17, 01:17:04,VALID,1002.1,VALID,0,INVALID,163.678,VALID,0,VALID,24.1902,VALID,349,VALID,0.932813,
2011-01-17, 01:18:04,VALID,1002.1,VALID,0,INVALID,163.685,VALID,0,VALID,24.1689,VALID,350,VALID,0.405859,
2011-01-17, 01:19:04,VALID,1002.11,VALID,0,INVALID,163.678,VALID,0,VALID,24.1902,VALID,350,VALID,0.071875,
2011-01-17, 01:20:04,VALID,1002.1,VALID,0,INVALID,163.678,VALID,0,VALID,24.1902,VALID,350,VALID,0,
2011-01-17, 01:21:04,VALID,1002.11,VALID,0,INVALID,163.67,VALID,0,VALID,24.1707,VALID,350,VALID,0,
2011-01-17, 01:22:04,VALID,1002.16,VALID,0,INVALID,163.701,VALID,0,VALID,24.1902,VALID,281,VALID,0.726953,
2011-01-17, 01:23:04,VALID,1002.19,VALID,0,INVALID,163.67,VALID,0,VALID,24.1494,VALID,284,VALID,1.39219,
2011-01-17, 01:24:04,VALID,1002.25,VALID,0,INVALID,163.708,VALID,0,VALID,24.1689,VALID,290,VALID,1.37383,
2011-01-17, 01:25:04,VALID,1002.27,VALID,0,INVALID,163.67,VALID,0,VALID,24.1494,VALID,290,VALID,1.31484,
2011-01-17, 01:26:04,VALID,1002.27,VALID,0,INVALID,163.678,VALID,0,VALID,24.1707,VALID,318,VALID,0.508984,
2011-01-17, 01:27:04,VALID,1002.3,VALID,0,INVALID,163.685,VALID,0,VALID,24.1707,VALID,339,VALID,0.671484,
2011-01-17, 01:28:04,VALID,1002.31,VALID,0,INVALID,163.708,VALID,0,VALID,24.1513,VALID,338,VALID,0.0441406,
2011-01-17, 01:29:04,VALID,1002.35,VALID,0,INVALID,163.693,VALID,0,VALID,24.1494,VALID,308,VALID,0.137891,
2011-01-17, 01:30:04,VALID,1002.38,VALID,0,INVALID,163.708,VALID,0,VALID,24.1494,VALID,342,VALID,0.343359,
2011-01-17, 01:31:04,VALID,1002.39,VALID,0,INVALID,163.685,VALID,0,VALID,24.13,VALID,343,VALID,0.622266,
2011-01-17, 01:32:04,VALID,1002.42,VALID,0,INVALID,163.678,VALID,0,VALID,24.13,VALID,354,VALID,0.9875,
2011-01-17, 01:33:04,VALID,1002.45,VALID,0,INVALID,163.67,VALID,0,VALID,24.13,VALID,353,VALID,1.24648,
2011-01-17, 01:34:04,VALID,1002.47,VALID,0,INVALID,163.701,VALID,0,VALID,24.0892,VALID,348,VALID,1.62227,
2011-01-17, 01:35:04,VALID,1002.53,VALID,0,INVALID,163.701,VALID,0,VALID,24.1513,VALID,351,VALID,1.44531,
2011-01-17, 01:36:04,VALID,1002.53,VALID,0,INVALID,163.678,VALID,0,VALID,24.1494,VALID,347,VALID,1.69492,
2011-01-17, 01:37:04,VALID,1002.56,VALID,0,INVALID,163.678,VALID,0,VALID,24.1689,VALID,355,VALID,1.54141,
2011-01-17, 01:38:04,VALID,1002.54,VALID,0,INVALID,163.685,VALID,0,VALID,24.2078,VALID,333,VALID,1.39922,
2011-01-17, 01:39:04,VALID,1002.57,VALID,0,INVALID,163.693,VALID,0,VALID,24.307,VALID,352,VALID,1.05625,
2011-01-17, 01:40:04,VALID,1002.61,VALID,0,INVALID,163.67,VALID,0,VALID,24.3654,VALID,354,VALID,1.6168,
2011-01-17, 01:41:04,VALID,1002.6,VALID,0,INVALID,163.67,VALID,0,VALID,24.3654,VALID,355,VALID,2.49062,
2011-01-17, 01:42:04,VALID,1002.61,VALID,0,INVALID,163.67,VALID,0,VALID,24.3265,VALID,352,VALID,2.66094,
2011-01-17, 01:43:04,VALID,1002.58,VALID,0,INVALID,163.701,VALID,0,VALID,24.3052,VALID,348,VALID,1.86523,
2011-01-17, 01:44:04,VALID,1002.62,VALID,0,INVALID,163.685,VALID,0,VALID,24.2662,VALID,1,VALID,2.64023,
2011-01-17, 01:45:04,VALID,1002.68,VALID,0,INVALID,163.678,VALID,0,VALID,24.2875,VALID,349,VALID,2.3582,
2011-01-17, 01:46:04,VALID,1002.66,VALID,0,INVALID,163.701,VALID,0,VALID,24.2468,VALID,343,VALID,1.39336,
2011-01-17, 01:47:04,VALID,1002.7,VALID,0,INVALID,163.678,VALID,0,VALID,24.2291,VALID,355,VALID,1.94141,
2011-01-17, 01:48:04,VALID,1002.7,VALID,0,INVALID,163.67,VALID,0,VALID,24.2097,VALID,351,VALID,1.94883,
2011-01-17, 01:49:04,VALID,1002.72,VALID,0,INVALID,163.723,VALID,0,VALID,24.1513,VALID,353,VALID,2.43594,
2011-01-17, 01:50:04,VALID,1002.75,VALID,0,INVALID,163.701,VALID,0,VALID,24.091,VALID,356,VALID,2.23672,
2011-01-17, 01:51:04,VALID,1002.71,VALID,0,INVALID,163.693,VALID,0,VALID,24.0734,VALID,359,VALID,2.31719,
2011-01-17, 01:52:04,VALID,1002.71,VALID,0,INVALID,163.67,VALID,0,VALID,24.0326,VALID,352,VALID,2.14063,
2011-01-17, 01:53:04,VALID,1002.7,VALID,0,INVALID,163.693,VALID,0,VALID,24.0345,VALID,359,VALID,1.31562,
2011-01-17, 01:54:04,VALID,1002.67,VALID,0,INVALID,163.685,VALID,0,VALID,24.0132,VALID,350,VALID,1.83398,
2011-01-17, 01:55:04,VALID,1002.65,VALID,0,INVALID,163.693,VALID,0,VALID,24.0132,VALID,359,VALID,1.91445,
2011-01-17, 01:56:04,VALID,1002.65,VALID,0,INVALID,163.701,VALID,0,VALID,24.0132,VALID,351,VALID,1.15625,
2011-01-17, 01:57:04,VALID,1002.65,VALID,0,INVALID,163.693,VALID,0,VALID,24.0557,VALID,355,VALID,1.14023,
2011-01-17, 01:58:04,VALID,1002.61,VALID,0,INVALID,163.693,VALID,0,VALID,24.0345,VALID,343,VALID,1.28867,
2011-01-17, 01:59:04,VALID,1002.6,VALID,0,INVALID,163.723,VALID,0,VALID,24.0539,VALID,6,VALID,0.891797,
2011-01-17, 02:00:04,VALID,1002.59,VALID,0,INVALID,163.701,VALID,0,VALID,24.0539,VALID,349,VALID,0.714844,
2011-01-17, 02:01:04,VALID,1002.56,VALID,0,INVALID,163.685,VALID,0,VALID,24.0539,VALID,358,VALID,1.62344,
2011-01-17, 02:02:04,VALID,1002.57,VALID,0,INVALID,163.685,VALID,0,VALID,24.0716,VALID,360,VALID,0.813672,
2011-01-17, 02:03:04,VALID,1002.56,VALID,0,INVALID,163.678,VALID,0,VALID,24.1336,VALID,350,VALID,1.18477,
2011-01-17, 02:04:04,VALID,1002.55,VALID,0,INVALID,163.693,VALID,0,VALID,24.1123,VALID,352,VALID,1.01602,
2011-01-17, 02:05:04,VALID,1002.53,VALID,0,INVALID,163.693,VALID,0,VALID,24.1105,VALID,351,VALID,0.742969,
2011-01-17, 02:06:04,VALID,1002.52,VALID,0,INVALID,163.67,VALID,0,VALID,24.1707,VALID,355,VALID,0.61875,
2011-01-17, 02:07:04,VALID,1002.51,VALID,0,INVALID,163.678,VALID,0,VALID,24.1707,VALID,356,VALID,1.11523,
2011-01-17, 02:08:04,VALID,1002.48,VALID,0,INVALID,163.685,VALID,0,VALID,24.2097,VALID,354,VALID,0.969922,
2011-01-17, 02:09:04,VALID,1002.45,VALID,0,INVALID,163.67,VALID,0,VALID,24.2681,VALID,357,VALID,1.04062,
2011-01-17, 02:10:04,VALID,1002.42,VALID,0,INVALID,163.701,VALID,0,VALID,24.307,VALID,348,VALID,1.0043,
2011-01-17, 02:11:04,VALID,1002.41,VALID,0,INVALID,163.701,VALID,0,VALID,24.3052,VALID,337,VALID,1.38945,
2011-01-17, 02:12:04,VALID,1002.35,VALID,0,INVALID,163.67,VALID,0,VALID,24.3636,VALID,347,VALID,1.10625,
2011-01-17, 02:13:04,VALID,1002.31,VALID,0,INVALID,163.678,VALID,0,VALID,24.4043,VALID,352,VALID,0.871094,
2011-01-17, 02:14:04,VALID,1002.27,VALID,0,INVALID,163.662,VALID,0,VALID,24.4628,VALID,347,VALID,1.21133,
2011-01-17, 02:15:04,VALID,1002.26,VALID,0,INVALID,163.632,VALID,0,VALID,24.4822,VALID,349,VALID,1.01563,
2011-01-17, 02:16:04,VALID,1002.25,VALID,0,INVALID,163.639,VALID,0,VALID,24.5017,VALID,345,VALID,0.607813,
2011-01-17, 02:17:04,VALID,1002.23,VALID,0,INVALID,163.639,VALID,0,VALID,24.4998,VALID,332,VALID,0.799609,
2011-01-17, 02:18:04,VALID,1002.22,VALID,0,INVALID,163.67,VALID,0,VALID,24.4822,VALID,350,VALID,0.910547,
2011-01-17, 02:19:04,VALID,1002.24,VALID,0,INVALID,163.662,VALID,0,VALID,24.4804,VALID,345,VALID,1.12969,
2011-01-17, 02:20:04,VALID,1002.28,VALID,0,INVALID,163.662,VALID,0,VALID,24.5212,VALID,356,VALID,1.25625,
2011-01-17, 02:21:04,VALID,1002.3,VALID,0,INVALID,163.662,VALID,0,VALID,24.5193,VALID,350,VALID,1.15273,
2011-01-17, 02:22:04,VALID,1002.32,VALID,0,INVALID,163.632,VALID,0,VALID,24.5972,VALID,349,VALID,1.41758,
2011-01-17, 02:23:04,VALID,1002.35,VALID,0,INVALID,163.632,VALID,0,VALID,24.6361,VALID,3,VALID,1.42773,
2011-01-17, 02:24:04,VALID,1002.31,VALID,0,INVALID,149.648,VALID,0,VALID,24.6166,VALID,2,VALID,1.62188,
2011-01-17, 02:25:04,VALID,1002.31,VALID,0,INVALID,142.073,VALID,0,VALID,24.6556,VALID,350,VALID,0.960938,
2011-01-17, 02:26:04,VALID,1002.28,VALID,0,INVALID,135.169,VALID,0,VALID,24.6361,VALID,360,VALID,1.18711,
2011-01-17, 02:27:04,VALID,1002.24,VALID,0,INVALID,127.669,VALID,0,VALID,24.6769,VALID,14,VALID,2.17422,
2011-01-17, 02:28:04,VALID,1002.24,VALID,0,INVALID,126.861,VALID,0,VALID,24.675,VALID,357,VALID,1.08555,
2011-01-17, 02:29:04,VALID,1002.23,VALID,0,INVALID,116.928,VALID,0,VALID,24.6556,VALID,356,VALID,1.73945,
2011-01-17, 02:30:04,VALID,1002.19,VALID,0,INVALID,121.467,VALID,0,VALID,24.675,VALID,14,VALID,0.826953,
2011-01-17, 02:31:04,VALID,1002.2,VALID,0,INVALID,121.177,VALID,0,VALID,24.6556,VALID,353,VALID,1.42305,
2011-01-17, 02:32:04,VALID,1002.21,VALID,0,INVALID,119.529,VALID,0,VALID,24.6361,VALID,349,VALID,1.15234,
2011-01-17, 02:33:04,VALID,1002.21,VALID,0,INVALID,118.042,VALID,0,VALID,24.6361,VALID,350,VALID,1.50391,
2011-01-17, 02:34:04,VALID,1002.21,VALID,0,INVALID,117.05,VALID,0,VALID,24.6574,VALID,3,VALID,1.64258,
2011-01-17, 02:35:04,VALID,1002.21,VALID,0,INVALID,115.608,VALID,0,VALID,24.6769,VALID,359,VALID,0.913281,
2011-01-17, 02:36:04,VALID,1002.19,VALID,0,INVALID,116.516,VALID,0,VALID,24.6769,VALID,1,VALID,1.33672,
2011-01-17, 02:37:04,VALID,1002.22,VALID,0,INVALID,114.113,VALID,0,VALID,24.6769,VALID,12,VALID,1.34023,
2011-01-17, 02:38:05,VALID,1002.2,VALID,0,INVALID,110.146,VALID,0,VALID,24.6945,VALID,325,VALID,0.677344,
2011-01-17, 02:39:05,VALID,1002.26,VALID,0,INVALID,109.284,VALID,0,VALID,24.7353,VALID,355,VALID,0.849219,
2011-01-17, 02:40:05,VALID,1002.27,VALID,0,INVALID,109.841,VALID,0,VALID,24.7335,VALID,349,VALID,0.642578,
2011-01-17, 02:41:05,VALID,1002.3,VALID,0,VALID,104,VALID,0,VALID,24.7353,VALID,308,VALID,0.540625,
2011-01-17, 02:42:05,VALID,1002.33,VALID,0,INVALID,112.862,VALID,0,VALID,24.714,VALID,288,VALID,0.460156,
2011-01-17, 02:43:05,VALID,1002.34,VALID,0,INVALID,113.502,VALID,0,VALID,24.7353,VALID,360,VALID,0.564844,
2011-01-17, 02:44:05,VALID,1002.36,VALID,0,INVALID,114.281,VALID,0,VALID,24.7353,VALID,349,VALID,0.311328,
2011-01-17, 02:45:05,VALID,1002.37,VALID,0,INVALID,115.845,VALID,0,VALID,24.7335,VALID,348,VALID,0.486719,
2011-01-17, 02:46:05,VALID,1002.37,VALID,0,INVALID,117.95,VALID,0,VALID,24.7548,VALID,337,VALID,0.286719,
2011-01-17, 02:47:05,VALID,1002.39,VALID,0,INVALID,116.066,VALID,0,VALID,24.714,VALID,346,VALID,0.396094,
2011-01-17, 02:48:05,VALID,1002.38,VALID,0,INVALID,118.141,VALID,0,VALID,24.7335,VALID,345,VALID,0.599219,
2011-01-17, 02:49:05,VALID,1002.39,VALID,0,INVALID,116.081,VALID,0,VALID,24.7724,VALID,358,VALID,0.283984,
2011-01-17, 02:50:05,VALID,1002.4,VALID,0,INVALID,114.357,VALID,0,VALID,24.7919,VALID,357,VALID,0.397656,
2011-01-17, 02:51:05,VALID,1002.41,VALID,0,INVALID,113.152,VALID,0,VALID,24.7705,VALID,337,VALID,0.521484,
2011-01-17, 02:52:05,VALID,1002.39,VALID,0,INVALID,117.668,VALID,0,VALID,24.8308,VALID,318,VALID,0.205078,
2011-01-17, 02:53:05,VALID,1002.37,VALID,0,INVALID,119.682,VALID,0,VALID,24.8522,VALID,318,VALID,0.090625,
2011-01-17, 02:54:05,VALID,1002.38,VALID,0,INVALID,121.276,VALID,0,VALID,24.893,VALID,337,VALID,0.358984,
2011-01-17, 02:55:05,VALID,1002.38,VALID,0,INVALID,118.21,VALID,0,VALID,24.8503,VALID,343,VALID,0.630469,
2011-01-17, 02:56:05,VALID,1002.38,VALID,0,INVALID,122.314,VALID,0,VALID,24.8308,VALID,344,VALID,0.438281,
2011-01-17, 02:57:05,VALID,1002.38,VALID,0,INVALID,127.776,VALID,0,VALID,24.8522,VALID,346,VALID,0.602734,
2011-01-17, 02:58:05,VALID,1002.33,VALID,0,INVALID,151.395,VALID,0,VALID,24.8132,VALID,348,VALID,0.716797,
2011-01-17, 02:59:05,VALID,1002.34,VALID,0,INVALID,163.601,VALID,0,VALID,24.7724,VALID,356,VALID,0.794922,
2011-01-17, 03:00:05,VALID,1002.36,VALID,0,INVALID,163.617,VALID,0,VALID,24.714,VALID,353,VALID,0.709766,
2011-01-17, 03:01:05,VALID,1002.35,VALID,0,INVALID,163.662,VALID,0,VALID,24.675,VALID,354,VALID,0.596484,
2011-01-17, 03:02:05,VALID,1002.39,VALID,0,INVALID,163.647,VALID,0,VALID,24.6361,VALID,344,VALID,0.366797,
2011-01-17, 03:03:05,VALID,1002.41,VALID,0,INVALID,163.67,VALID,0,VALID,24.6185,VALID,344,VALID,0.341797,
2011-01-17, 03:04:05,VALID,1002.43,VALID,0,INVALID,163.662,VALID,0,VALID,24.599,VALID,344,VALID,0.379297,
2011-01-17, 03:05:05,VALID,1002.4,VALID,0,INVALID,163.662,VALID,0,VALID,24.5388,VALID,344,VALID,0.300391,
2011-01-17, 03:06:05,VALID,1002.42,VALID,0,INVALID,163.67,VALID,0,VALID,24.5193,VALID,344,VALID,0.321484,
2011-01-17, 03:07:05,VALID,1002.43,VALID,0,INVALID,163.662,VALID,0,VALID,24.5406,VALID,344,VALID,0.207813,
2011-01-17, 03:08:05,VALID,1002.44,VALID,0,INVALID,163.693,VALID,0,VALID,24.5212,VALID,344,VALID,0.191406,
2011-01-17, 03:09:05,VALID,1002.41,VALID,0,INVALID,163.662,VALID,0,VALID,24.5212,VALID,1,VALID,0.437891,
2011-01-17, 03:10:05,VALID,1002.44,VALID,0,INVALID,163.67,VALID,0,VALID,24.5193,VALID,4,VALID,0.616016,
2011-01-17, 03:11:05,VALID,1002.44,VALID,0,INVALID,163.662,VALID,0,VALID,24.5193,VALID,8,VALID,0.378125,
2011-01-17, 03:12:05,VALID,1002.41,VALID,0,INVALID,163.655,VALID,0,VALID,24.498,VALID,8,VALID,0.393359,
2011-01-17, 03:13:05,VALID,1002.4,VALID,0,INVALID,163.678,VALID,0,VALID,24.4998,VALID,8,VALID,0.647656,
2011-01-17, 03:14:05,VALID,1002.39,VALID,0,INVALID,163.67,VALID,0,VALID,24.4998,VALID,358,VALID,0.5625,
2011-01-17, 03:15:05,VALID,1002.37,VALID,0,INVALID,163.67,VALID,0,VALID,24.5174,VALID,1,VALID,0.954297,
2011-01-17, 03:16:05,VALID,1002.36,VALID,0,INVALID,163.662,VALID,0,VALID,24.5601,VALID,358,VALID,0.619531,
2011-01-17, 03:17:05,VALID,1002.34,VALID,0,INVALID,163.655,VALID,0,VALID,24.5564,VALID,343,VALID,0.776563,
2011-01-17, 03:18:05,VALID,1002.34,VALID,0,INVALID,163.655,VALID,0,VALID,24.6185,VALID,356,VALID,0.440234,
2011-01-17, 03:19:05,VALID,1002.33,VALID,0,INVALID,163.647,VALID,0,VALID,24.638,VALID,354,VALID,0.699609,
2011-01-17, 03:20:05,VALID,1002.32,VALID,0,INVALID,163.67,VALID,0,VALID,24.6398,VALID,356,VALID,0.552344,
2011-01-17, 03:21:05,VALID,1002.34,VALID,0,INVALID,163.655,VALID,0,VALID,24.599,VALID,359,VALID,0.43125,
2011-01-17, 03:22:05,VALID,1002.35,VALID,0,INVALID,163.647,VALID,0,VALID,24.5796,VALID,359,VALID,0.526172,
2011-01-17, 03:23:05,VALID,1002.35,VALID,0,INVALID,163.655,VALID,0,VALID,24.5796,VALID,359,VALID,0.425,
2011-01-17, 03:24:05,VALID,1002.36,VALID,0,INVALID,163.662,VALID,0,VALID,24.5796,VALID,359,VALID,0,
2011-01-17, 03:25:05,VALID,1002.35,VALID,0,INVALID,163.647,VALID,0,VALID,24.5796,VALID,359,VALID,0.178125,
2011-01-17, 03:26:05,VALID,1002.35,VALID,0,INVALID,163.655,VALID,0,VALID,24.5777,VALID,358,VALID,0.324219,
2011-01-17, 03:27:05,VALID,1002.35,VALID,0,INVALID,163.647,VALID,0,VALID,24.638,VALID,358,VALID,0.372266,
2011-01-17, 03:28:05,VALID,1002.35,VALID,0,INVALID,163.655,VALID,0,VALID,24.6361,VALID,354,VALID,0.368359,
2011-01-17, 03:29:05,VALID,1002.34,VALID,0,INVALID,163.647,VALID,0,VALID,24.6964,VALID,354,VALID,0.395703,
2011-01-17, 03:30:05,VALID,1002.34,VALID,0,INVALID,163.655,VALID,0,VALID,24.675,VALID,354,VALID,0.498437,
2011-01-17, 03:31:05,VALID,1002.34,VALID,0,INVALID,163.632,VALID,0,VALID,24.7159,VALID,354,VALID,0.352344,
2011-01-17, 03:32:05,VALID,1002.32,VALID,0,INVALID,163.639,VALID,0,VALID,24.6945,VALID,354,VALID,0.339453,
2011-01-17, 03:33:05,VALID,1002.33,VALID,0,INVALID,163.67,VALID,0,VALID,24.6964,VALID,354,VALID,0.519922,
2011-01-17, 03:34:05,VALID,1002.33,VALID,0,INVALID,163.67,VALID,0,VALID,24.6574,VALID,354,VALID,0.472266,
2011-01-17, 03:35:05,VALID,1002.33,VALID,0,INVALID,163.678,VALID,0,VALID,24.6185,VALID,354,VALID,0.497266,
2011-01-17, 03:36:05,VALID,1002.33,VALID,0,INVALID,163.655,VALID,0,VALID,24.5582,VALID,354,VALID,0.431641,
2011-01-17, 03:37:05,VALID,1002.36,VALID,0,INVALID,163.685,VALID,0,VALID,24.5406,VALID,354,VALID,0.615625,
2011-01-17, 03:38:05,VALID,1002.32,VALID,0,INVALID,163.693,VALID,0,VALID,24.4609,VALID,354,VALID,0.518359,
2011-01-17, 03:39:05,VALID,1002.32,VALID,0,INVALID,163.655,VALID,0,VALID,24.4822,VALID,354,VALID,0.595312,
2011-01-17, 03:40:05,VALID,1002.37,VALID,0,INVALID,163.678,VALID,0,VALID,24.422,VALID,354,VALID,0.558594,
2011-01-17, 03:41:05,VALID,1002.3,VALID,0,INVALID,163.67,VALID,0,VALID,24.4043,VALID,354,VALID,0.493359,